Starlink 3299

operational
NORAD ID: 50831 Int'l Des: 2022-001 Owner: SPXS Country: US Constellation: starlink
LEOCIRCULAR

About Starlink 3299

Description loading...

Live Position

Loading 3D Globe...

Upcoming Passes

Altitude History

Altitude vs Time

uPlot chart will show altitude changes over time

Two-Line Element Set

1 50831U 22001AE 25305.62020162 -.00000353 00000-0 -40952-5 0 9994
2 50831 53.2191 24.1142 0001641 100.6455 259.4722 15.08834799211073
Epoch: Nov 1, 2025 • Age: 22 hours

Current Status

Altitude 541.7 km
Velocity 7.60 km/s
Sub-Earth Point 34.80°N, 168.84°E
Launch Date Jan 6, 2022
Age 3.8 years
Type internet

Technical Details

Classification Payload
Mass 297.00 kg
Dry Mass 275.00 kg
Total Mass 297.00 kg
Length 0.20 m
Diameter 2.80 m
Span 9.00 m
Shape Box + pan
Manufacturer SPXS
Bus Type Starlink
Phase Status In Orbit
Owner/State SPXS/US

Large Constellations

Loading constellations...